User: anonymous   Login
Location: Unspecified
(0.0000°N, 0.0000°E)
Time: 18:00:04
(UTC+00:00)
Language:

APRIZESAT 3 - Orbit

View from above orbital plane
View from above orbital plane
View from above satellite
View from above satellite

Ground track
Ground track

The orbit data is extracted from the following two-line orbital elements,

1 35686U 09041F   15241.12827109  .00000677  00000-0  79805-4 0  9998
2 35686 098.2046 204.6418 0073907 353.5663 006.4595 14.86495041329400
Epoch (UTC): 29 August 2015 03:04:42
Eccentricity: 0.0073907
inclination: 98.2046°
perigee height: 557 km
apogee height: 660 km
right ascension of ascending node: 204.6418°
argument of perigee: 353.5663°
revolutions per day: 14.86495041
mean anomaly at epoch: 6.4595°
orbit number at epoch: 32940

The dashed part of the orbit path shows where the satellite is in the earth's shadow,  

DLR